[[{"header":{"parameterUnit":"m.s-1","parameterCategory":1,"la1":30.2991,"la2":30.254,"lo1":-89.0895,"lo2":-89.0444,"dy":0.0017,"dx":0.0017,"nx":28,"ny":28,"refTime":"2023-10-09T03:00:00:Z","depth":0,"parameterNumber":2,"parameterNumberName":"U-component_of_WINDS"},"data":[0,0,0,0,0,0,0,0,0,0,0,0,0,0,0,0,0,0,0,0,0,0,0,0,0,0,0,0,0,0,0,0,0,0,0,0,0,0,0,0,0,0,0,0,0,0,0,0,0,0,0,0,0,0,0,0,0,0,2.0023,2.0024,0,2.0138,2.0139,2.0141,2.0159,2.0158,2.0157,2.0156,2.0273,2.0276,2.028,0,0,0,0,0,0,0,0,0,0,0,0,0,1.9813,1.9817,2.0022,2.0024,2.0025,2.0138,2.014,2.0141,2.0159,2.0158,2.0157,2.0156,2.0271,2.0276,2.0281,0,0,0,0,0,0,0,0,0,0,0,0,0,1.9914,1.9818,2.0022,2.0048,2.0052,2.0138,2.014,2.0142,2.016,2.0158,2.0157,2.0155,2.027,2.0276,2.0282,2.0349,0,0,2.03,2.0303,0,0,0,0,0,0,0,0,1.9908,1.9922,2.0043,2.0046,2.0051,2.0133,2.0108,2.0211,2.016,2.0119,2.0156,2.0154,2.0227,2.0237,2.0262,2.0355,2.036,2.0301,2.0304,2.0307,2.0309,0,0,0,0,0,0,0,1.9901,1.9917,2.0068,2.0045,2.0049,2.0053,2.0065,2.0128,2.018,2.0122,2.0124,2.0137,2.0229,2.0256,2.0264,2.0361,2.03,2.0306,2.031,2.0312,2.0512,2.0513,0,0,0,0,0,0,1.989,1.9911,2.0064,2.0072,1.9974,2.0058,2.0072,2.0108,2.0179,2.0189,2.0138,2.0138,2.0246,2.0257,2.0269,2.035,2.0307,2.0312,2.0316,2.051,2.0512,2.0514,0,0,0,0,0,0,1.9886,1.9904,2.006,1.9992,2.0012,2.0063,2.0103,2.0111,2.0138,2.0192,2.0201,2.0156,2.0245,2.026,2.0328,2.0354,2.0315,2.0321,2.0508,2.0511,2.0513,2.0515,0,0,0,0,0,0,1.9879,1.9902,1.9929,1.9992,2.0015,2.0119,2.0105,2.0114,2.0148,2.0148,2.0211,2.022,2.0245,2.0319,2.0334,2.0362,2.0325,2.0506,2.0509,2.0512,2.0512,2.0517,2.0521,0,0,0,0,0,1.9872,1.9926,1.9931,1.9949,2.0051,2.0121,2.0134,2.0162,2.015,2.0177,2.0211,2.0218,2.0349,2.0326,2.0343,2.0373,2.0504,2.0508,2.0512,2.0511,2.0516,2.0521,0,0,0,0,0,0,1.9865,1.9935,1.9941,2.0017,2.0062,2.0124,2.0159,2.0168,2.0218,2.0215,2.0248,2.0262,2.0328,2.0358,2.0331,2.044,2.0426,2.0433,2.0419,2.0424,2.0428,2.0419,2.033,0,0,0,0,0,1.9872,1.9924,1.9981,2.0043,2.0065,2.0108,2.0139,2.0157,2.0206,2.0225,2.0264,2.031,2.0361,2.0395,2.0445,2.0517,2.0529,2.0545,2.055,2.0553,2.0558,2.0595,2.0602,2.0526,2.0526,2.0526,0,0,1.9888,1.9932,1.9963,2.0042,2.008,2.0131,2.0124,2.0179,2.0217,2.0233,2.03,2.033,2.0383,2.0452,2.0485,2.0479,2.0582,2.0557,2.056,2.0564,2.06,2.0607,2.0613,2.0529,2.0528,2.0528,0,0,1.9941,1.9981,2.0035,2.0072,2.0129,2.0157,2.0169,2.0229,2.0249,2.0316,2.0329,2.0373,2.0462,2.0498,2.0528,2.0592,2.0599,2.0608,2.0629,2.0664,2.067,2.0675,2.0696,2.0703,2.0613,2.0613,2.0613,0,1.9953,2.0032,2.0062,2.0115,2.0149,2.0166,2.0219,2.0254,2.0324,2.0345,2.0338,2.0447,2.0484,2.0561,2.0576,2.0601,2.0614,2.06,2.0667,2.0673,2.0678,2.0698,2.0706,2.0614,2.0614,2.0614,2.0614,0,2.0042,2.0096,2.0133,2.0199,2.0236,2.029,2.0326,2.036,2.0374,2.0401,2.0467,2.0512,2.0571,2.059,2.0605,2.0668,2.0662,2.0661,2.0646,2.0685,2.0704,2.0712,2.0615,2.0614,2.0614,2.0614,0,0,2.0096,2.0177,2.0189,2.0218,2.028,2.0322,2.0375,2.0432,2.0459,2.0506,2.0549,2.0622,2.062,2.0654,2.0672,2.0704,2.0748,2.0698,2.0699,2.0704,2.0817,2.0816,2.0825,2.0753,2.0754,2.0756,2.0811,0,2.0156,2.0251,2.0278,2.0358,2.0406,2.0421,2.0467,2.0508,2.0535,2.0579,2.0608,2.0658,2.0653,2.0673,2.0704,2.0736,2.0771,2.0732,2.0791,2.0793,2.0776,2.0835,2.0836,2.0886,2.0819,2.0821,2.0821,0,2.0239,2.0286,2.037,2.0423,2.0445,2.0485,2.0538,2.058,2.0627,2.0643,2.068,2.0695,2.0748,2.0731,2.0803,2.0776,2.0802,2.0821,2.0823,2.0829,2.0809,2.084,2.0903,2.091,2.0834,2.0833,2.0832,0,2.0266,2.0352,2.0412,2.0437,2.0501,2.0528,2.0556,2.0602,2.0633,2.0678,2.0699,2.075,2.0777,2.0816,2.0843,2.0829,2.0912,2.0898,2.0925,2.0924,2.0941,2.094,2.1008,2.0961,2.096,2.096,2.096,0,2.0329,2.038,2.0425,2.0462,2.0518,2.0547,2.0601,2.063,2.0669,2.071,2.0727,2.0765,2.08,2.0842,2.0864,2.0918,2.0931,2.0945,2.0949,2.0942,2.094,2.0959,2.0955,2.0962,2.0962,2.0962,2.0961,0,2.037,2.0403,2.0469,2.0524,2.0538,2.0577,2.0622,2.0658,2.0684,2.0736,2.075,2.079,2.084,2.0872,2.0936,2.095,2.1009,2.1014,2.0993,2.0995,2.102,2.1017,2.1101,2.1112,2.1059,2.106,2.106,0,2.0408,2.0446,2.0504,2.0533,2.0561,2.0607,2.0639,2.0668,2.07,2.0754,2.0783,2.0834,2.0876,2.0955,2.099,2.1038,2.1042,2.1068,2.105,2.104,2.104,2.1037,2.1039,2.1071,2.1072,2.1072,2.1072,0,2.0469,2.0483,2.0528,2.0578,2.0615,2.0656,2.0697,2.0719,2.0755,2.079,2.0841,2.0874,2.0938,2.0987,2.1038,2.1065,2.1074,2.1078,2.1086,2.1079,2.1064,2.107,2.1,2.1076,2.1075,2.1075,2.1075,2.1075,2.0508,2.0542,2.0587,2.0636,2.0669,2.0706,2.0741,2.0771,2.0814,2.0869,2.0883,2.0936,2.0979,2.1047,2.1075,2.1116,2.1112,2.1125,2.1128,2.113,2.1129,2.1059,2.1125,2.1125,2.1125,2.1125,2.1125,0,2.0569,2.0598,2.0643,2.0698,2.0736,2.0741,2.0786,2.0816,2.0863,2.0902,2.0943,2.1,2.1047,2.1084,2.1132,2.1157,2.1162,2.1169,2.1167,2.1172,2.1131,2.1118,2.1164,2.1164,2.1164,2.1164,2.1164,2.1164,2.0605,2.0662,2.068,2.0752,2.0781,2.0833,2.0857,2.089,2.0921,2.0984,2.1023,2.1047,2.1085,2.1135,2.1178,2.1188,2.1204,2.1209,2.1219,2.118,2.1175,2.1171,2.1159,2.1213,2.1213,2.1256,2.1257,2.1257]},{"header":{"parameterUnit":"m.s-1","parameterCategory":1,"la1":30.2991,"la2":30.254,"lo1":-89.0895,"lo2":-89.0444,"dy":0.0017,"dx":0.0017,"nx":28,"ny":28,"refTime":"2023-10-09T03:00:00:Z","depth":0,"parameterNumber":3,"parameterNumberName":"V-component_of_WINDS"},"data":[0,0,0,0,0,0,0,0,0,0,0,0,0,0,0,0,0,0,0,0,0,0,0,0,0,0,0,0,0,0,0,0,0,0,0,0,0,0,0,0,0,0,0,0,0,0,0,0,0,0,0,0,0,0,0,0,0,0,-0.5425,-0.5425,0,-0.54,-0.54,-0.54,-0.5418,-0.5419,-0.542,-0.5421,-0.5392,-0.5391,-0.5389,0,0,0,0,0,0,0,0,0,0,0,0,0,-0.5487,-0.5486,-0.5425,-0.5425,-0.5425,-0.54,-0.54,-0.54,-0.5418,-0.5419,-0.542,-0.5421,-0.5393,-0.5391,-0.5389,0,0,0,0,0,0,0,0,0,0,0,0,0,-0.5461,-0.5485,-0.5425,-0.5431,-0.5431,-0.54,-0.54,-0.54,-0.5418,-0.5419,-0.542,-0.5421,-0.5393,-0.5391,-0.5389,-0.5351,0,0,-0.5382,-0.5381,0,0,0,0,0,0,0,0,-0.5462,-0.5458,-0.543,-0.543,-0.5431,-0.5414,-0.5412,-0.5383,-0.5417,-0.5423,-0.5421,-0.5422,-0.5398,-0.5396,-0.5388,-0.5349,-0.5348,-0.5382,-0.5381,-0.538,-0.5379,0,0,0,0,0,0,0,-0.5464,-0.546,-0.5415,-0.543,-0.543,-0.5434,-0.5432,-0.5406,-0.5404,-0.5422,-0.5424,-0.5421,-0.5399,-0.539,-0.5388,-0.5348,-0.5382,-0.538,-0.5379,-0.5378,-0.5277,-0.5275,0,0,0,0,0,0,-0.5466,-0.5461,-0.5416,-0.5415,-0.545,-0.5432,-0.5429,-0.5418,-0.5404,-0.5403,-0.542,-0.5422,-0.5394,-0.539,-0.5387,-0.5341,-0.538,-0.5378,-0.5376,-0.5278,-0.5276,-0.5275,0,0,0,0,0,0,-0.5467,-0.5461,-0.5417,-0.5438,-0.5433,-0.543,-0.5417,-0.5417,-0.5409,-0.5402,-0.5402,-0.5412,-0.5395,-0.539,-0.536,-0.534,-0.5376,-0.5374,-0.528,-0.5277,-0.5276,-0.5249,0,0,0,0,0,0,-0.5468,-0.5462,-0.5447,-0.5438,-0.5432,-0.5391,-0.5415,-0.5415,-0.5405,-0.5407,-0.5395,-0.5394,-0.5395,-0.5363,-0.5358,-0.5338,-0.5373,-0.5281,-0.5279,-0.5276,-0.5251,-0.5246,-0.5241,0,0,0,0,0,-0.5471,-0.544,-0.5446,-0.5441,-0.5414,-0.539,-0.5386,-0.5389,-0.5403,-0.5388,-0.5385,-0.5394,-0.5344,-0.536,-0.5354,-0.5333,-0.5282,-0.5279,-0.5276,-0.5253,-0.5247,-0.5242,0,0,0,0,0,0,-0.5446,-0.5439,-0.5446,-0.5411,-0.5401,-0.5393,-0.5374,-0.5382,-0.5367,-0.5369,-0.5373,-0.537,-0.5338,-0.5333,-0.5351,-0.5295,-0.5315,-0.5311,-0.53,-0.5294,-0.5289,-0.529,-0.5371,0,0,0,0,0,-0.5437,-0.5419,-0.5413,-0.5383,-0.5378,-0.5377,-0.5366,-0.537,-0.5359,-0.5354,-0.5348,-0.5337,-0.5318,-0.5306,-0.5289,-0.5251,-0.5249,-0.5234,-0.5229,-0.5225,-0.5221,-0.5201,-0.5194,-0.5265,-0.5265,-0.5265,0,0,-0.5417,-0.5411,-0.5399,-0.5378,-0.537,-0.5351,-0.5373,-0.5351,-0.5336,-0.5351,-0.5322,-0.5317,-0.5305,-0.5271,-0.5256,-0.5265,-0.5201,-0.5221,-0.5218,-0.5216,-0.5197,-0.519,-0.5184,-0.5263,-0.5263,-0.5264,0,0,-0.5371,-0.5365,-0.5339,-0.5331,-0.532,-0.532,-0.5314,-0.5305,-0.5303,-0.5274,-0.5285,-0.5268,-0.5236,-0.5226,-0.5218,-0.517,-0.5178,-0.5164,-0.5138,-0.5118,-0.5112,-0.5107,-0.509,-0.5083,-0.516,-0.516,-0.516,0,-0.5347,-0.5318,-0.5324,-0.5302,-0.5292,-0.5307,-0.528,-0.5273,-0.5256,-0.5249,-0.526,-0.5222,-0.5214,-0.5178,-0.5167,-0.5159,-0.5152,-0.5165,-0.5113,-0.5108,-0.5103,-0.5086,-0.508,-0.5159,-0.5159,-0.5159,-0.5159,0,-0.529,-0.527,-0.525,-0.5235,-0.5224,-0.5199,-0.5202,-0.5189,-0.5194,-0.5193,-0.5164,-0.5156,-0.5137,-0.513,-0.5134,-0.5094,-0.5101,-0.5113,-0.5132,-0.5095,-0.5079,-0.5073,-0.5156,-0.5157,-0.5157,-0.5158,0,0,-0.5225,-0.5215,-0.5207,-0.5201,-0.519,-0.5175,-0.5152,-0.5135,-0.5124,-0.5113,-0.5092,-0.5066,-0.5078,-0.5068,-0.5071,-0.5054,-0.5016,-0.5068,-0.5068,-0.5058,-0.4972,-0.4962,-0.4954,-0.5023,-0.5022,-0.5021,-0.4973,0,-0.5177,-0.5137,-0.5143,-0.5104,-0.5085,-0.51,-0.5079,-0.5071,-0.5069,-0.5053,-0.5052,-0.5033,-0.505,-0.5044,-0.5028,-0.5024,-0.4999,-0.5028,-0.5003,-0.5002,-0.5004,-0.4946,-0.4935,-0.489,-0.4967,-0.4966,-0.4965,0,-0.5115,-0.5103,-0.5063,-0.5056,-0.5049,-0.503,-0.5016,-0.5,-0.4991,-0.4991,-0.4981,-0.4988,-0.4965,-0.4987,-0.4954,-0.4974,-0.4964,-0.4961,-0.496,-0.4956,-0.498,-0.494,-0.4876,-0.4869,-0.4955,-0.4956,-0.4957,0,-0.5071,-0.5044,-0.5017,-0.5011,-0.5003,-0.499,-0.4985,-0.4977,-0.4967,-0.4954,-0.4948,-0.4932,-0.4923,-0.4911,-0.4914,-0.4929,-0.488,-0.4902,-0.4879,-0.4879,-0.4866,-0.4866,-0.4799,-0.4862,-0.4863,-0.4863,-0.4863,0,-0.5016,-0.499,-0.4997,-0.498,-0.4952,-0.4959,-0.4931,-0.4928,-0.4921,-0.4904,-0.4915,-0.4898,-0.4904,-0.4887,-0.4889,-0.4862,-0.4858,-0.4857,-0.4857,-0.4855,-0.4855,-0.4847,-0.485,-0.4861,-0.4861,-0.4862,-0.4862,0,-0.496,-0.4964,-0.4935,-0.493,-0.4928,-0.4908,-0.4904,-0.4887,-0.4888,-0.4866,-0.4861,-0.4861,-0.4842,-0.4845,-0.4823,-0.4825,-0.479,-0.4795,-0.4793,-0.4794,-0.477,-0.4772,-0.4694,-0.4684,-0.4755,-0.4755,-0.4754,0,-0.4924,-0.4905,-0.4899,-0.4889,-0.4884,-0.4867,-0.4857,-0.4864,-0.4853,-0.4842,-0.4827,-0.4809,-0.4795,-0.4765,-0.4763,-0.4747,-0.4751,-0.4725,-0.4748,-0.4746,-0.4749,-0.4749,-0.4747,-0.4719,-0.4718,-0.4718,-0.4717,0,-0.486,-0.4863,-0.4849,-0.4835,-0.4823,-0.4812,-0.4803,-0.4793,-0.4799,-0.4787,-0.4768,-0.4758,-0.4737,-0.4719,-0.4704,-0.47,-0.4709,-0.471,-0.4704,-0.47,-0.4699,-0.4698,-0.4779,-0.4711,-0.4712,-0.4712,-0.4713,-0.4713,-0.4812,-0.4796,-0.4789,-0.4773,-0.4767,-0.4758,-0.4743,-0.4743,-0.4727,-0.4711,-0.4717,-0.4695,-0.4688,-0.4669,-0.4663,-0.4646,-0.4656,-0.4646,-0.4644,-0.4641,-0.4638,-0.4704,-0.4644,-0.4644,-0.4644,-0.4644,-0.4644,0,-0.4747,-0.4744,-0.4729,-0.4716,-0.4704,-0.4716,-0.4706,-0.4694,-0.4676,-0.4668,-0.4655,-0.4634,-0.4617,-0.4615,-0.4599,-0.4586,-0.459,-0.4582,-0.4582,-0.4581,-0.4631,-0.4637,-0.4579,-0.4579,-0.4579,-0.4579,-0.4579,-0.4579,-0.4712,-0.4685,-0.4688,-0.4658,-0.4655,-0.4635,-0.4629,-0.4621,-0.4615,-0.4591,-0.4578,-0.4577,-0.4571,-0.4555,-0.4541,-0.454,-0.4533,-0.4523,-0.4524,-0.4571,-0.4577,-0.4583,-0.459,-0.4522,-0.4522,-0.4475,-0.4475,-0.4475]}]]